[[{"header":{"parameterUnit":"m.s-1","parameterCategory":1,"la1":30.2991,"la2":30.254,"lo1":-89.0895,"lo2":-89.0444,"dy":0.0017,"dx":0.0017,"nx":28,"ny":28,"refTime":"2025-06-18T09:00:00:Z","depth":0,"parameterNumber":2,"parameterNumberName":"U-component_of_WINDS"},"data":[0,0,0,0,0,0,0,0,0,0,0,0,0,0,0,0,0,0,0,0,0,0,0,0,0,0,0,0,0,0,0,0,0,0,0,0,0,0,0,0,0,0,0,0,0,0,0,0,0,0,0,0,0,0,0,0,0,0,5.3797,5.3799,0,5.3948,5.395,5.3952,5.3868,5.3864,5.3859,5.3856,5.4016,5.4024,5.4032,0,0,0,0,0,0,0,0,0,0,0,0,0,5.3437,5.3444,5.3797,5.3799,5.3801,5.3948,5.395,5.3952,5.3869,5.3863,5.3858,5.3854,5.4013,5.4023,5.4032,0,0,0,0,0,0,0,0,0,0,0,0,0,5.3592,5.3446,5.3797,5.3777,5.3776,5.3948,5.395,5.3953,5.387,5.3863,5.3857,5.3851,5.401,5.4022,5.4034,5.4235,0,0,5.4071,5.4077,0,0,0,0,0,0,0,0,5.3583,5.3605,5.3778,5.3778,5.3778,5.3883,5.3882,5.4048,5.3871,5.3834,5.3855,5.3848,5.3977,5.3991,5.4034,5.4243,5.425,5.4072,5.408,5.4085,5.4088,0,0,0,0,0,0,0,5.3572,5.3598,5.3857,5.378,5.3781,5.3761,5.3776,5.3913,5.3939,5.3837,5.3831,5.385,5.3976,5.4022,5.4037,5.4252,5.4072,5.4083,5.409,5.4095,5.463,5.4636,0,0,0,0,0,0,5.3562,5.359,5.3852,5.3861,5.3663,5.3772,5.3789,5.3856,5.3937,5.3944,5.3855,5.3846,5.4004,5.4023,5.4042,5.428,5.4085,5.4096,5.4103,5.4623,5.4631,5.4639,0,0,0,0,0,0,5.3555,5.3587,5.3846,5.3724,5.3755,5.3785,5.3861,5.3862,5.3908,5.3951,5.3956,5.3898,5.4,5.4025,5.4187,5.4285,5.4102,5.4113,5.4615,5.4625,5.4635,5.476,0,0,0,0,0,0,5.3545,5.3585,5.3661,5.3726,5.3762,5.3988,5.3867,5.3869,5.3929,5.3918,5.3992,5.3999,5.3997,5.4169,5.4199,5.4298,5.4123,5.4606,5.462,5.4632,5.4748,5.4774,5.4796,0,0,0,0,0,5.3533,5.3693,5.3665,5.3698,5.3858,5.3994,5.4014,5.4008,5.3937,5.4014,5.4041,5.3996,5.427,5.4186,5.4219,5.4324,5.46,5.4616,5.4631,5.4737,5.4769,5.4795,0,0,0,0,0,0,5.3641,5.3701,5.3672,5.3857,5.392,5.3979,5.4076,5.4042,5.4129,5.4115,5.4105,5.4122,5.429,5.4323,5.4229,5.4521,5.4424,5.4447,5.4493,5.4524,5.4547,5.4535,5.4133,0,0,0,0,0,5.3686,5.3789,5.3837,5.3996,5.4029,5.4047,5.4106,5.4095,5.4161,5.4188,5.4227,5.4294,5.4394,5.4461,5.4556,5.4752,5.4766,5.4841,5.4865,5.4884,5.4904,5.5007,5.5039,5.4689,5.4689,5.4689,0,0,5.3781,5.3826,5.3893,5.4019,5.4066,5.4174,5.4071,5.419,5.4269,5.4207,5.436,5.4391,5.4465,5.4644,5.4724,5.4677,5.5003,5.4904,5.4919,5.4928,5.5026,5.5059,5.5088,5.47,5.4698,5.4696,0,0,5.4008,5.4054,5.419,5.4239,5.4311,5.4322,5.4354,5.4418,5.4435,5.4588,5.4543,5.4638,5.4812,5.4865,5.4915,5.5159,5.512,5.519,5.5317,5.5417,5.5444,5.5469,5.5553,5.5584,5.521,5.521,5.5211,0,5.4118,5.4276,5.4264,5.4386,5.4441,5.4387,5.4524,5.4573,5.4674,5.4714,5.4659,5.4873,5.492,5.5108,5.5167,5.521,5.5246,5.5182,5.5441,5.5466,5.5488,5.5568,5.5601,5.5218,5.5217,5.5216,5.5216,0,5.4406,5.4517,5.4618,5.4713,5.478,5.491,5.4917,5.4987,5.4969,5.4986,5.5141,5.5194,5.5297,5.5342,5.5328,5.5528,5.5495,5.5442,5.5343,5.553,5.5605,5.5636,5.523,5.5227,5.5224,5.5222,0,0,5.4707,5.4791,5.4828,5.4869,5.4944,5.503,5.5156,5.5254,5.5313,5.5384,5.5488,5.5635,5.5584,5.5641,5.5632,5.572,5.5906,5.5655,5.5656,5.5697,5.6126,5.6165,5.6201,5.588,5.5886,5.5891,5.6119,0,5.4937,5.5155,5.5146,5.5349,5.545,5.5398,5.5507,5.5565,5.5583,5.5672,5.5692,5.5795,5.5721,5.5755,5.584,5.5865,5.5992,5.5849,5.5977,5.5981,5.5958,5.6241,5.6283,5.6496,5.6149,5.6154,5.6158,0,5.5235,5.5312,5.5525,5.5581,5.5623,5.5721,5.5808,5.5894,5.5958,5.5964,5.6026,5.6002,5.6129,5.6027,5.62,5.6103,5.6155,5.6175,5.6183,5.6194,5.608,5.6257,5.6564,5.6595,5.6204,5.6201,5.6197,0,5.543,5.5588,5.5734,5.5772,5.5842,5.5911,5.5944,5.6001,5.6059,5.6136,5.6174,5.6266,5.6316,5.6388,5.6389,5.6315,5.6563,5.6463,5.6572,5.6572,5.6626,5.6622,5.6943,5.6662,5.6662,5.6661,5.6661,0,5.5688,5.5819,5.5822,5.5913,5.6057,5.6046,5.619,5.6216,5.6266,5.636,5.6323,5.6412,5.6408,5.6499,5.6501,5.6642,5.6666,5.6675,5.6673,5.6677,5.6676,5.671,5.6694,5.667,5.6668,5.6666,5.6665,0,5.593,5.5938,5.6093,5.6145,5.6161,5.6266,5.631,5.6395,5.6409,5.6528,5.6555,5.6577,5.6681,5.6689,5.6811,5.6812,5.6982,5.6966,5.696,5.6957,5.7064,5.7053,5.7417,5.7463,5.7154,5.7157,5.716,0,5.6093,5.6192,5.6253,5.6312,5.6348,5.6444,5.6502,5.6494,5.6557,5.6634,5.671,5.681,5.6889,5.7057,5.7085,5.7176,5.7161,5.7282,5.7175,5.7174,5.716,5.7153,5.7161,5.7303,5.7306,5.7309,5.7311,0,5.638,5.6378,5.6463,5.6548,5.6618,5.6686,5.6749,5.6799,5.6799,5.6871,5.6975,5.7036,5.7158,5.7257,5.7346,5.738,5.7346,5.7344,5.7374,5.7378,5.737,5.7373,5.7015,5.7336,5.7334,5.7332,5.733,5.7329,5.6586,5.6671,5.6725,5.682,5.6866,5.6925,5.7006,5.7028,5.7114,5.721,5.7201,5.7316,5.7374,5.749,5.753,5.762,5.7579,5.7623,5.7634,5.7644,5.7654,5.7356,5.7637,5.7636,5.7636,5.7635,5.7635,0,5.6869,5.6901,5.6988,5.7075,5.7149,5.7108,5.7175,5.724,5.734,5.7397,5.7474,5.7593,5.7687,5.7721,5.7813,5.7878,5.7864,5.7903,5.7897,5.7905,5.7687,5.7651,5.7912,5.7912,5.7912,5.7912,5.7911,5.7911,5.7025,5.7164,5.7168,5.7329,5.736,5.747,5.7511,5.7565,5.7609,5.7742,5.782,5.784,5.7886,5.7981,5.8066,5.8073,5.8108,5.8152,5.8153,5.7948,5.792,5.7894,5.7859,5.816,5.8161,5.8362,5.8364,5.8366]},{"header":{"parameterUnit":"m.s-1","parameterCategory":1,"la1":30.2991,"la2":30.254,"lo1":-89.0895,"lo2":-89.0444,"dy":0.0017,"dx":0.0017,"nx":28,"ny":28,"refTime":"2025-06-18T09:00:00:Z","depth":0,"parameterNumber":3,"parameterNumberName":"V-component_of_WINDS"},"data":[0,0,0,0,0,0,0,0,0,0,0,0,0,0,0,0,0,0,0,0,0,0,0,0,0,0,0,0,0,0,0,0,0,0,0,0,0,0,0,0,0,0,0,0,0,0,0,0,0,0,0,0,0,0,0,0,0,0,2.9804,2.9805,0,2.9939,2.994,2.9942,2.9949,2.9948,2.9946,2.9945,3.008,3.0085,3.009,0,0,0,0,0,0,0,0,0,0,0,0,0,2.9546,2.9551,2.9803,2.9805,2.9807,2.9939,2.9941,2.9942,2.995,2.9948,2.9946,2.9944,3.0078,3.0084,3.009,0,0,0,0,0,0,0,0,0,0,0,0,0,2.9667,2.9552,2.9803,2.9826,2.983,2.9938,2.9941,2.9943,2.995,2.9948,2.9945,2.9943,3.0076,3.0083,3.0091,3.0184,0,0,3.0114,3.0117,0,0,0,0,0,0,0,0,2.966,2.9677,2.9821,2.9825,2.9829,2.9925,2.9899,3.0024,2.9951,2.9904,2.9945,2.9942,3.003,3.0041,3.0071,3.019,3.0196,3.0115,3.0119,3.0122,3.0125,0,0,0,0,0,0,0,2.9652,2.9671,2.9857,2.9823,2.9828,2.9828,2.9843,2.9923,2.9978,2.9908,2.9909,2.9925,3.0031,3.0064,3.0075,3.0198,3.0114,3.0121,3.0126,3.0129,3.0398,3.04,0,0,0,0,0,0,2.964,2.9664,2.9853,2.9861,2.9737,2.9835,2.9851,2.9896,2.9978,2.9988,2.9927,2.9925,3.0052,3.0066,3.0079,3.0193,3.0122,3.0129,3.0134,3.0395,3.0398,3.0401,0,0,0,0,0,0,2.9634,2.9657,2.9847,2.9763,2.9787,2.9842,2.9893,2.99,2.9933,2.9992,3.0001,2.9951,3.0051,3.0069,3.0158,3.0198,3.0133,3.014,3.0392,3.0396,3.04,3.0421,0,0,0,0,0,0,2.9627,2.9654,2.9692,2.9764,2.9792,2.9925,2.9895,2.9905,2.9947,2.9945,3.0016,3.0026,3.0051,3.0146,3.0165,3.0207,3.0146,3.0389,3.0394,3.0399,3.0417,3.0425,3.0432,0,0,0,0,0,2.9618,2.9692,2.9694,2.9716,2.984,2.9927,2.9943,2.9971,2.995,2.9987,3.0024,3.0024,3.019,3.0156,3.0177,3.0221,3.0386,3.0393,3.0398,3.0413,3.0423,3.0432,0,0,0,0,0,0,2.9622,2.9702,2.9705,2.9805,2.9859,2.9928,2.9976,2.9981,3.0042,3.0038,3.0069,3.0085,3.0172,3.0206,3.0166,3.0314,3.0286,3.0296,3.029,3.03,3.0307,3.0297,3.0152,0,0,0,0,0,2.9635,2.9701,2.9766,2.9848,2.9876,2.9921,2.996,2.9977,3.0034,3.0057,3.0101,3.0155,3.022,3.0261,3.0324,3.0421,3.0436,3.0462,3.0469,3.0475,3.0484,3.0536,3.0548,3.0421,3.0421,3.042,0,0,2.9662,2.9714,2.9753,2.985,2.9895,2.9961,2.994,3.0012,3.006,3.0067,3.0154,3.0188,3.0251,3.0344,3.0387,3.0374,3.0522,3.0483,3.0487,3.0493,3.0543,3.0555,3.0566,3.0425,3.0424,3.0423,0,0,2.9745,2.9791,2.9864,2.9909,2.9976,3.0006,3.0023,3.0091,3.0114,3.0202,3.0209,3.0266,3.0377,3.0421,3.0457,3.0555,3.0556,3.0574,3.0613,3.0664,3.0674,3.0683,3.0716,3.0728,3.0582,3.0582,3.0582,0,2.977,2.9871,2.99,2.9972,3.0013,3.0023,3.0096,3.0137,3.0221,3.0249,3.0234,3.0372,3.0415,3.0517,3.0541,3.0571,3.059,3.0566,3.067,3.068,3.0689,3.0721,3.0734,3.0584,3.0584,3.0584,3.0583,0,2.9897,2.9967,3.0017,3.0099,3.0147,3.0218,3.0256,3.03,3.0312,3.0343,3.0431,3.0482,3.0555,3.058,3.0593,3.0684,3.0674,3.0664,3.0636,3.0702,3.0733,3.0745,3.0587,3.0586,3.0585,3.0585,0,0,2.9988,3.0084,3.0102,3.0139,3.0213,3.0267,3.0338,3.041,3.0446,3.0503,3.0562,3.0655,3.0645,3.0687,3.0704,3.0748,3.082,3.0733,3.0735,3.0747,3.0923,3.093,3.0944,3.0822,3.0824,3.0826,3.0917,0,3.0078,3.0207,3.0234,3.0344,3.0408,3.0417,3.0479,3.053,3.056,3.0617,3.0649,3.0714,3.0698,3.0723,3.0767,3.0802,3.0856,3.0796,3.0875,3.0878,3.0859,3.096,3.0968,3.1051,3.093,3.0932,3.0933,0,3.0202,3.0262,3.0379,3.0443,3.0471,3.0526,3.0593,3.0648,3.0705,3.0724,3.077,3.0782,3.0853,3.0821,3.092,3.0878,3.0912,3.0934,3.0938,3.0946,3.0909,3.097,3.1079,3.1091,3.0953,3.0951,3.095,0,3.0255,3.0365,3.0449,3.048,3.0558,3.0596,3.063,3.0685,3.0726,3.0784,3.081,3.0875,3.0911,3.096,3.0988,3.0963,3.1084,3.1055,3.11,3.1099,3.1125,3.1123,3.124,3.1147,3.1147,3.1147,3.1147,0,3.0353,3.0423,3.0474,3.0525,3.0604,3.0634,3.071,3.0743,3.0792,3.0848,3.086,3.0912,3.0947,3.1004,3.1026,3.1103,3.1119,3.1135,3.114,3.1134,3.1132,3.1156,3.1151,3.115,3.115,3.1149,3.1148,0,3.0425,3.0463,3.0554,3.062,3.0638,3.0693,3.0749,3.0798,3.0827,3.0898,3.0917,3.0963,3.103,3.1063,3.1146,3.1161,3.1248,3.1249,3.1229,3.1231,3.1274,3.1269,3.141,3.143,3.1325,3.1326,3.1326,0,3.0485,3.054,3.0612,3.0651,3.0686,3.0749,3.0791,3.0822,3.0865,3.0933,3.0974,3.1041,3.1098,3.1204,3.1244,3.1307,3.1309,3.1354,3.1319,3.131,3.1309,3.1305,3.131,3.1361,3.1362,3.1363,3.1363,0,3.0587,3.0603,3.0664,3.073,3.078,3.0834,3.0887,3.0918,3.0956,3.1003,3.1073,3.1116,3.1201,3.1268,3.1334,3.1366,3.1371,3.1374,3.1388,3.1382,3.1367,3.1375,3.1246,3.1371,3.137,3.1369,3.1369,3.1369,3.0655,3.0704,3.0762,3.0828,3.0871,3.092,3.0969,3.1005,3.1064,3.1136,3.115,3.1223,3.1277,3.1366,3.1401,3.1457,3.1447,3.1467,3.1472,3.1476,3.1478,3.1359,3.1469,3.1469,3.1469,3.1469,3.1469,0,3.0757,3.0794,3.0856,3.0929,3.0981,3.0982,3.104,3.1083,3.1148,3.1198,3.1253,3.1332,3.1396,3.144,3.1505,3.1541,3.1545,3.1557,3.1554,3.1562,3.1484,3.1465,3.1553,3.1553,3.1553,3.1553,3.1553,3.1553,3.0816,3.0897,3.0919,3.1021,3.1058,3.1131,3.1164,3.1208,3.1248,3.1336,3.139,3.1419,3.1467,3.1535,3.1593,3.1604,3.1627,3.1639,3.165,3.1576,3.1567,3.1559,3.1541,3.1644,3.1644,3.1723,3.1724,3.1724]}]]